Simultaneous Nadir Overpasses (SNOs) Predictions

Prediction of SNOs between LANDSAT-8 and METOP-A Satellite Orbit:

Table of predicted SNOs for the next 14.0 days since TLE Epoch: 7/31/2015
Index Date (LANDSAT-8) Time (LANDSAT-8) Lat,Lon (LANDSAT-8) SZA (LANDSAT-8 ) Date (METOP-A) Time (METOP-A) Lat,Lon (METOP-A) SZA (METOP-A ) Distance(km) Time Diff (sec)
1 08/01/2015 16:22:28 -81.21, 155.71 114.67 08/01/2015 16:21:34 -81.21, 155.79 114.68 1.38 54
2 08/01/2015 17:11:53 81.23, -36.15 65.41 08/01/2015 17:12:12 81.24, -35.95 65.44 3.27 19
3 08/04/2015 11:56:43 -81.21,-137.69 113.92 08/04/2015 11:55:56 -81.21,-137.83 113.96 2.53 47
4 08/04/2015 12:46:09 81.22, 30.05 66.11 08/04/2015 12:46:35 81.22, 30.01 66.12 0.87 26
5 08/07/2015 07:30:58 -81.22, -71.16 113.14 08/07/2015 07:30:17 -81.22, -71.11 113.15 0.78 41
6 08/07/2015 08:20:23 81.25, 96.93 66.94 08/07/2015 08:20:55 81.24, 97.09 66.97 2.77 32
7 08/10/2015 03:05:12 -81.22, -4.69 112.33 08/10/2015 03:04:38 -81.22, -4.81 112.35 1.99 34
8 08/10/2015 03:54:37 81.25, 163.37 67.75 08/10/2015 03:55:16 81.24, 163.37 67.76 0.56 39
9 08/12/2015 22:39:27 -81.22, 61.71 111.49 08/12/2015 22:38:59 -81.22, 61.84 111.48 2.42 28




NCC Satellite Simultaneous Nadir Overpasses (SNOs) Prediction Service
